星链-5747 (STARLINK-5747 )

导读

STARLINK-5747是美国SpaceX公司旗下星链计划的一颗商用通信卫星,于2023年2月12日协调世界时8点,在空军东部测试场通过猎鹰9号运载火箭发射升空。 该卫星运行在近地轨道,重量约305公斤,近地点高度约560公里,远地点高度约562公里,轨道倾角约43度,承担着商业通信服务的任务,属于星链卫星互联网组网的一员。

Basic Information
目录编号:
55574
目录名称:
STARLINK-5747
国际标识:
2023-020F
轨道中心:
EARTH
卫星名称:
星链-5747
卫星全名:
星链-5747 (STARLINK-5747 )
卫星状态:
在轨 (已飞行1219 天)
发射日期:
2023-02-12 UTC
国别 :
美国 (US)
星等 :
--
Orbit Information
数据来源 国际轨道数据 AOE轨道数据
星历时间 2026-06-15T02:08:45+0800
7小时前
查看轨道信息
2026-06-15T06:00:00+0800
4小时前
查看轨道信息
半长轴 6861.2km 6861.192km
偏心率 0.0001303 0.0001597
轨道倾角 43.002° 43.001°
近地点辐角 301.156° 287.226°
升交点赤经 180.795° 179.890°
平近点角 58.916° 237.016°
近地点 482.168km 481.959km
远地点 483.958km 484.151km
周期 94.267分钟 94.267分钟
每日圈数 15.275756 15.275782
Detailed Information
固有亮度:
5
最大亮度:
2.5
卫星平台:
Starlink v1.5
覆盖范围:
全球
运营商:
太空探索技术公司
运营商所在国:
美国
制造商(研发单位):
太空探索技术公司
制造商所在国:
美国
使用方式:
暂无
Satellite Introduction
星链(Starlink)计划是由太空探索技术公司(SpaceX)提出的一个巨型低轨卫星互联网星座项目,计划在2019年至2024年间在太空搭建由约1.2万颗卫星组成的“星链”网络,其中1584颗将部署在地球上空550千米处的近地轨道,并从2020年开始工作。该卫星仍在工作。
2D Orbit Map
3D Orbit Map
Orbit Altitude Analysis Chart
Orbit Inclination Analysis Chart
Orbit Comprehensive Analysis Chart
View Comprehensive Chart